TimeMDT,TemperatureF,Dew PointF,Humidity,Sea Level PressureIn,VisibilityMPH,Wind Direction,Wind SpeedMPH,Gust SpeedMPH,PrecipitationIn,Events,Conditions,WindDirDegrees,DateUTC
12:53 AM,64.0,48.9,58,29.92,10.0,WNW,9.2,-,N/A,,Clear,300,2013-08-06 06:53:00
1:53 AM,62.1,48.9,62,29.90,10.0,WNW,8.1,-,N/A,,Clear,300,2013-08-06 07:53:00
2:53 AM,62.1,48.9,62,29.90,10.0,WNW,11.5,-,N/A,,Clear,300,2013-08-06 08:53:00
3:53 AM,62.1,48.9,62,29.89,10.0,NNW,12.7,-,N/A,,Clear,330,2013-08-06 09:53:00
4:53 AM,62.1,50.0,65,29.90,10.0,NW,12.7,-,N/A,,Scattered Clouds,320,2013-08-06 10:53:00
5:53 AM,61.0,51.1,70,29.92,10.0,NW,11.5,-,N/A,,Overcast,310,2013-08-06 11:53:00
6:53 AM,61.0,51.1,70,29.92,10.0,NW,11.5,-,N/A,,Mostly Cloudy,310,2013-08-06 12:53:00
7:53 AM,66.0,52.0,60,29.91,10.0,NW,4.6,-,N/A,,Clear,310,2013-08-06 13:53:00
8:53 AM,71.1,52.0,51,29.93,10.0,WNW,5.8,-,N/A,,Clear,300,2013-08-06 14:53:00
9:53 AM,77.0,48.9,37,29.92,10.0,NW,3.5,-,N/A,,Clear,320,2013-08-06 15:53:00
10:53 AM,78.1,48.0,35,29.93,10.0,WNW,8.1,-,N/A,,Clear,300,2013-08-06 16:53:00
11:53 AM,80.1,46.0,30,29.91,10.0,West,10.4,-,N/A,,Clear,270,2013-08-06 17:53:00
12:53 PM,80.1,44.1,28,29.92,10.0,SW,9.2,-,N/A,,Partly Cloudy,220,2013-08-06 18:53:00
1:53 PM,82.0,45.0,27,29.90,10.0,West,11.5,16.1,N/A,,Clear,270,2013-08-06 19:53:00
2:53 PM,81.0,46.9,30,29.88,10.0,West,9.2,20.7,N/A,,Mostly Cloudy,260,2013-08-06 20:53:00
3:26 PM,82.4,46.4,28,30.20,10.0,WNW,11.5,23.0,N/A,,Mostly Cloudy,300,2013-08-06 21:26:00
3:53 PM,81.0,45.0,28,29.86,10.0,West,12.7,18.4,N/A,,Scattered Clouds,270,2013-08-06 21:53:00
4:53 PM,82.9,45.0,26,29.85,10.0,West,19.6,-,N/A,,Scattered Clouds,270,2013-08-06 22:53:00
5:53 PM,70.0,50.0,49,29.92,9.0,South,24.2,36.8,0.00,Rain,Light Rain,190,2013-08-06 23:53:00
6:53 PM,72.0,51.1,48,29.92,10.0,South,16.1,24.2,0.05,Rain,Light Rain,190,2013-08-07 00:53:00
7:53 PM,68.0,53.1,59,29.93,10.0,NNW,9.2,-,0.00,,Partly Cloudy,340,2013-08-07 01:53:00
8:53 PM,66.0,51.1,59,29.92,10.0,NNW,9.2,-,N/A,,Clear,330,2013-08-07 02:53:00
9:53 PM,64.0,51.1,63,29.91,10.0,NNW,6.9,-,N/A,,Clear,330,2013-08-07 03:53:00
10:53 PM,64.0,48.9,58,29.91,10.0,NNW,9.2,-,N/A,,Clear,330,2013-08-07 04:53:00
11:53 PM,61.0,50.0,67,29.91,10.0,WNW,9.2,-,N/A,,Clear,300,2013-08-07 05:53:00